GEFSSGP_con_prob3kmehi_126.txt.gz
EHI
0 0 0 0 0 0 0 0 0 0 0 0 1 2 7 10 9 9 17 40 59 52 37 33 32 22 11 4 1 1 1 1 1 2 3 4 3 1 1 4 4 3 1 1 3 5 6 4 3
0 0 0 0 0 0 0 0 0 0 0 1 4 6 9 11 11 13 25 46 57 48 34 34 34 25 14 8 4 2 2 2 2 3 3 4 4 2 2 3 4 4 3 1 2 5 6 5 4
0 0 0 0 0 0 0 0 0 0 1 3 8 12 13 14 15 20 35 51 52 40 33 36 37 29 20 13 8 5 4 4 5 5 4 4 5 5 5 5 6 8 7 3 2 5 6 5 4
0 0 0 0 0 0 0 0 0 0 1 4 11 20 25 25 26 30 38 44 40 32 30 35 38 32 23 16 11 9 7 7 10 10 8 6 7 9 10 9 9 10 9 6 4 5 5 4 3
0 0 0 0 0 0 0 0 0 0 1 5 16 31 39 39 38 33 30 28 27 28 27 31 37 33 23 16 14 13 11 12 16 18 15 13 13 14 14 12 10 8 5 4 3 4 4 3 2
0 0 0 0 0 0 0 0 0 0 2 8 22 39 45 43 37 26 19 18 23 30 29 29 33 32 25 19 18 18 17 18 23 26 23 21 20 18 15 12 10 7 3 1 1 3 4 3 2
0 0 0 0 0 0 0 0 1 2 6 12 24 39 45 40 29 19 14 17 25 32 30 24 24 24 22 20 22 23 23 24 28 29 26 24 22 18 13 11 10 8 3 1 0 2 3 3 2
0 0 0 0 0 0 0 1 3 5 10 16 25 36 41 36 26 19 18 21 28 31 26 20 18 17 14 13 19 25 27 27 27 26 21 18 15 12 10 9 11 9 5 2 1 1 1 1 2
0 0 0 0 0 0 1 3 4 7 14 21 26 33 37 35 29 25 25 28 32 32 25 19 18 16 12 13 20 24 24 23 22 19 15 11 9 8 8 12 17 14 8 5 2 1 0 0 1
0 0 0 0 0 0 1 3 5 7 15 22 26 30 34 35 33 32 33 38 41 37 27 22 22 20 20 26 31 26 21 20 17 16 15 11 8 10 15 26 30 22 11 6 4 1 1 0 0
0 0 0 0 0 0 1 5 8 10 14 18 23 27 31 34 34 34 36 42 45 40 30 29 30 29 33 42 41 33 29 28 24 22 23 17 12 15 29 41 38 24 12 7 5 2 0 0 0
0 0 0 0 1 2 4 7 11 13 12 15 20 26 30 31 31 33 35 40 43 39 34 36 40 41 46 52 48 41 42 42 36 34 32 25 20 22 33 42 36 22 13 9 6 2 1 1 0
0 0 0 1 2 4 5 8 11 12 12 14 19 26 30 31 32 35 37 41 43 43 41 43 46 50 55 57 53 46 46 46 43 41 39 35 32 30 35 38 33 22 17 15 10 5 3 3 2
0 0 0 1 3 4 5 6 8 10 13 16 20 26 30 31 33 38 43 46 46 44 46 48 49 52 57 59 55 50 47 45 44 43 41 38 38 39 40 40 33 24 22 23 18 13 10 9 7
0 0 0 1 2 3 3 5 8 12 15 19 22 26 29 29 32 38 45 47 43 40 43 46 48 51 56 59 58 54 51 47 44 41 39 36 37 41 43 40 34 28 27 27 25 22 19 17 15
0 0 0 1 1 1 2 5 8 12 17 21 24 27 30 31 34 38 41 42 39 37 39 43 47 53 56 58 59 56 52 48 43 40 38 37 37 39 40 38 33 30 29 29 26 24 24 23 20
0 0 0 0 0 0 1 4 7 10 15 20 24 28 32 36 37 36 35 36 36 36 39 44 48 51 53 54 54 50 47 45 41 39 40 40 39 38 38 35 32 30 29 27 23 23 25 23 21
0 0 0 0 0 0 1 5 8 9 12 17 22 25 30 35 35 32 32 33 34 36 39 42 45 46 47 47 47 45 43 42 38 36 39 41 39 38 38 35 32 29 26 23 21 22 23 22 20
0 0 0 0 0 0 1 5 8 9 11 16 20 22 26 29 30 28 28 30 34 36 37 40 41 41 42 42 42 40 40 40 36 33 36 38 37 36 35 33 31 27 23 20 19 20 19 18 17
0 0 0 0 0 0 1 3 6 8 10 16 22 26 27 29 28 25 23 25 28 30 31 35 37 38 38 38 36 35 36 36 34 32 33 33 32 30 29 29 27 24 22 20 19 17 14 12 12
0 0 0 0 0 1 0 2 6 9 12 19 27 31 32 33 30 25 22 21 20 21 22 25 29 31 32 33 32 32 32 33 32 30 28 27 25 24 24 24 22 21 21 21 20 16 11 7 5
0 0 0 0 0 0 0 3 9 16 19 23 31 35 34 34 31 25 22 18 16 15 15 16 18 20 24 27 29 29 29 29 28 26 24 22 20 19 20 20 18 17 18 19 18 16 12 6 1
0 0 0 0 0 0 0 2 10 19 24 27 34 39 36 33 30 24 20 16 15 14 12 12 12 13 17 20 22 24 24 24 22 21 21 19 17 16 16 15 14 14 14 14 14 15 12 5 2
0 0 0 0 0 0 0 1 8 16 23 30 38 41 38 33 28 22 18 16 14 13 12 12 12 13 15 15 16 17 19 19 17 17 17 17 15 14 12 10 10 9 9 9 9 9 7 4 2
0 0 0 0 0 0 0 1 7 15 23 33 41 42 37 31 24 19 16 14 13 12 12 12 13 15 15 14 13 14 15 15 14 13 13 13 11 9 7 6 5 5 5 4 4 4 2 1 1
0 0 0 0 0 0 0 2 9 17 26 34 39 39 33 26 19 15 12 11 9 9 9 11 13 14 14 12 12 12 12 12 11 9 8 7 6 5 4 3 3 3 2 1 1 1 1 0 0
0 0 0 0 0 0 0 2 7 15 25 31 32 30 26 20 16 12 8 7 6 6 6 8 10 11 11 9 9 10 9 9 8 6 4 4 4 3 3 3 3 2 1 0 0 0 0 0 0
0 0 0 0 0 0 0 1 3 10 20 26 24 21 19 16 13 10 5 3 3 3 4 5 7 8 7 6 6 6 6 5 4 3 3 3 3 3 3 2 2 1 0 0 0 0 0 0 0
0 0 0 0 0 0 0 0 2 7 17 22 23 21 18 14 11 8 3 1 1 1 2 3 3 4 3 3 3 3 2 1 1 2 3 3 2 2 1 1 1 0 0 0 0 0 0 0 0
0 0 0 0 0 0 0 0 2 7 15 22 25 23 18 13 10 6 2 0 0 0 1 1 1 1 1 1 1 1 0 0 0 1 2 2 1 1 0 0 0 0 0 0 0 0 0 0 0

GEFSSGP_con_prob3kmehi_132.txt.gz
EHI
0 0 0 0 0 0 0 0 0 1 3 8 17 26 27 21 14 7 3 12 32 42 36 34 38 41 40 35 25 16 12 11 10 11 14 14 13 12 14 15 12 6 3 2 2 1 2 2 3
0 0 0 0 0 0 0 0 1 2 4 10 24 34 34 29 23 12 7 20 43 49 39 36 43 46 41 33 25 17 12 10 9 9 10 10 10 9 9 9 6 3 1 1 1 0 1 1 2
0 0 0 0 0 0 0 0 2 3 6 14 29 39 36 30 23 14 15 35 55 55 43 42 51 52 43 34 26 19 14 10 7 6 6 7 7 7 5 3 1 0 0 0 0 0 0 0 1
0 0 0 0 0 0 0 0 2 5 10 20 34 41 35 26 21 21 29 47 61 59 48 47 54 55 48 40 31 23 16 10 5 3 3 4 5 5 3 1 0 0 0 0 0 0 0 0 0
0 0 0 0 0 0 0 0 3 7 15 27 40 43 36 30 31 35 40 51 62 61 52 49 54 56 54 47 37 26 17 10 5 2 2 2 3 3 2 1 1 1 1 0 0 0 0 0 0
0 0 0 0 0 0 0 2 5 11 20 32 42 43 37 35 37 38 40 49 59 58 51 46 48 52 55 50 38 26 17 11 6 3 1 1 2 2 2 3 4 5 5 2 1 1 0 0 0
0 0 0 0 0 0 0 3 7 13 21 30 39 43 40 37 35 34 37 47 54 53 46 40 38 41 46 44 34 24 17 13 9 5 3 2 2 2 3 4 6 7 7 5 3 2 1 0 0
0 0 0 0 0 0 0 3 7 12 19 25 31 37 41 41 39 38 40 44 45 42 38 34 31 31 33 32 27 21 18 16 13 9 7 5 3 3 3 3 4 6 6 4 3 4 3 1 0
0 0 0 0 0 0 1 5 8 11 17 23 27 34 40 44 46 46 43 38 32 27 26 27 26 25 23 22 21 19 18 16 13 10 9 6 3 2 2 2 3 4 5 3 3 5 5 3 1
0 0 0 0 0 1 3 6 7 9 14 21 28 36 42 44 48 48 41 32 22 16 16 18 19 18 17 17 17 16 15 12 10 9 7 5 3 2 2 3 3 4 5 3 3 3 3 2 1
0 0 0 0 1 2 4 5 4 6 10 18 29 38 40 40 41 40 35 28 20 14 12 13 14 14 14 16 15 14 12 9 7 6 5 3 3 2 2 3 4 5 6 5 2 1 0 0 0
0 0 1 1 2 4 4 2 2 5 9 16 27 35 37 35 33 31 29 24 19 13 10 10 11 11 12 14 14 12 10 7 6 5 4 3 3 3 3 3 4 7 8 6 3 1 0 0 0
0 0 1 2 2 3 2 1 2 6 12 20 28 31 32 30 27 24 21 18 15 11 11 11 10 10 11 12 11 9 7 6 5 4 4 5 5 5 4 4 4 6 7 6 3 1 0 0 0
0 0 1 2 2 2 2 3 4 7 15 25 28 27 25 25 22 19 18 15 12 10 10 11 11 11 12 13 10 8 7 6 4 4 5 6 6 4 3 3 4 3 3 3 2 1 0 1 1
0 0 1 2 3 2 3 5 6 11 19 26 29 28 25 21 18 17 18 16 12 9 9 10 11 12 13 13 11 10 10 8 6 5 6 6 6 4 2 2 2 2 1 2 1 1 1 1 1
0 0 0 1 2 2 3 5 9 17 25 30 32 32 27 21 17 17 19 17 12 9 8 10 11 11 11 11 11 13 13 11 8 7 7 6 6 6 4 3 2 2 3 3 3 2 2 2 1
0 0 0 0 1 1 3 6 11 21 31 34 34 33 29 23 18 17 18 17 13 10 10 10 9 8 10 12 13 14 14 11 8 7 6 5 6 7 7 6 5 4 5 6 5 3 3 2 1
0 0 0 0 1 3 5 8 12 20 28 32 32 31 29 24 19 18 19 18 15 12 10 9 6 5 8 14 16 14 11 8 6 5 4 4 5 7 8 9 8 7 6 6 5 4 3 2 1
0 0 0 0 1 3 6 9 12 16 21 27 30 30 27 22 18 18 18 16 14 12 9 6 4 4 7 12 15 13 9 8 6 5 5 4 4 6 7 8 8 7 5 5 4 3 3 2 1
0 0 0 0 1 2 5 9 12 15 20 26 31 30 25 19 16 16 15 12 10 8 6 4 3 4 7 9 10 10 9 9 9 8 7 6 5 6 6 7 7 6 5 3 2 2 2 1 0
0 0 0 0 0 1 3 6 10 17 25 30 30 28 23 19 17 15 13 9 7 5 4 4 3 4 5 7 8 10 9 9 10 10 9 8 7 7 6 6 6 6 5 4 3 2 1 0 0
0 0 0 0 0 0 1 3 8 16 25 27 25 23 20 17 15 13 11 9 6 5 5 5 5 5 5 5 6 8 8 8 9 9 7 7 6 6 6 6 6 6 6 4 3 2 1 0 0
0 0 0 0 0 0 0 0 3 10 18 22 21 18 16 13 12 11 10 9 9 8 7 7 6 6 5 4 4 5 5 6 7 6 5 4 5 6 6 6 6 6 5 4 3 2 0 0 0
0 0 0 0 0 0 0 0 1 4 13 19 19 16 15 13 11 9 9 9 10 10 9 8 7 6 5 4 4 4 4 4 5 5 4 4 5 6 5 4 4 4 4 3 3 2 1 0 0
0 0 0 0 0 0 0 0 0 2 8 16 17 15 16 15 11 9 8 7 8 9 9 6 5 5 5 4 3 3 2 3 3 3 4 4 5 4 4 3 3 3 3 3 3 2 1 0 0
0 0 0 0 0 0 0 0 0 1 5 11 14 14 15 13 10 7 6 5 5 5 4 3 2 3 3 3 2 1 1 1 1 1 2 2 3 3 3 3 3 3 3 2 2 2 1 0 0
0 0 0 0 0 0 0 0 0 1 4 7 10 10 10 9 6 4 4 3 2 2 1 1 0 1 1 1 1 0 0 0 0 0 0 0 1 3 3 3 3 2 1 1 1 1 0 0 0
0 0 0 0 0 0 0 0 0 1 2 5 6 7 7 6 3 1 1 1 1 1 1 1 1 0 0 0 0 0 0 0 0 0 0 0 1 2 3 3 2 1 0 0 0 0 0 0 0
0 0 0 0 0 0 0 0 0 0 1 3 5 6 6 5 2 0 0 0 0 0 1 2 1 0 0 0 0 0 0 0 0 0 0 0 0 1 2 2 1 0 0 0 0 0 0 0 0
0 0 0 0 0 0 0 0 0 0 0 2 5 6 6 5 2 0 0 0 0 0 1 1 1 0 0 0 0 0 0 0 0 0 0 0 0 0 1 1 0 0 0 0 0 0 0 0 0

GEFSSGP_con_prob3kmehi_138.txt.gz
EHI
0 0 0 0 0 0 0 0 0 0 0 4 11 14 13 8 5 4 5 14 27 29 20 20 31 44 59 71 74 73 72 71 69 67 60 50 41 37 31 20 9 5 5 5 4 2 1 1 1
0 0 0 0 0 0 0 0 0 0 0 5 13 19 18 14 9 8 10 19 31 32 23 21 32 46 58 68 72 71 69 67 65 60 52 43 37 34 29 19 10 7 7 7 5 2 1 1 2
0 0 0 0 0 0 0 0 0 1 1 5 13 21 22 18 12 10 16 28 39 39 29 26 35 47 55 63 67 67 65 63 59 52 45 38 32 28 24 17 10 7 7 7 5 2 1 1 2
0 0 0 0 0 0 0 0 0 1 2 5 14 22 25 20 14 16 26 39 50 47 37 34 41 48 53 58 63 64 63 60 56 49 42 35 28 22 17 12 8 7 7 5 3 3 3 3 3
0 0 0 0 0 0 0 0 0 1 2 6 16 26 30 25 21 28 39 48 54 52 45 45 49 50 52 55 61 63 61 57 52 44 35 26 21 16 12 9 8 9 8 5 3 4 4 4 3
0 0 0 0 0 0 0 0 1 3 5 10 19 28 32 30 32 38 44 49 51 53 51 51 52 50 50 53 56 58 56 51 45 36 25 16 12 10 8 8 9 10 7 4 3 3 3 2 2
0 0 0 0 0 0 0 1 2 5 9 15 24 30 30 33 41 46 49 49 49 49 48 47 46 45 47 50 49 48 46 42 37 29 19 12 10 8 7 8 10 9 6 4 4 4 3 2 2
0 0 0 0 0 0 0 1 3 6 10 17 25 28 32 38 46 52 53 50 46 42 40 37 35 36 41 43 41 39 38 37 33 26 19 14 13 11 8 8 8 6 5 5 5 6 4 3 3
0 0 0 0 0 0 0 1 3 7 13 20 24 29 37 45 48 50 49 47 43 37 32 29 27 30 34 35 33 32 31 30 25 21 18 15 11 8 7 5 4 3 2 4 7 7 5 4 3
0 0 0 0 0 0 0 1 3 8 15 21 27 35 44 47 45 43 43 42 39 33 27 23 22 25 27 27 27 26 24 20 16 14 13 9 6 4 4 3 2 1 1 3 6 7 4 2 1
0 0 0 0 0 0 0 1 2 5 10 17 28 39 44 42 39 39 39 37 32 27 22 18 17 19 19 20 20 19 16 12 10 8 7 6 4 3 3 2 2 1 0 2 4 5 2 0 0
0 0 0 0 0 0 0 0 1 2 6 13 26 37 39 35 33 32 31 27 23 20 17 15 13 12 12 13 13 12 11 9 8 6 5 4 3 2 1 1 1 0 0 0 2 2 1 0 0
0 0 0 0 1 1 1 0 0 2 7 15 26 34 34 28 24 21 19 16 14 14 13 12 10 9 9 9 8 7 8 7 6 5 3 2 1 1 0 0 0 0 0 0 1 1 1 0 0
0 0 0 1 2 3 3 2 1 4 11 18 24 28 26 21 15 12 10 9 10 11 9 7 7 7 8 9 7 6 6 5 3 3 1 0 0 0 0 0 0 0 0 0 1 2 1 0 0
0 0 0 0 1 2 3 3 5 10 17 21 21 20 18 14 10 9 7 7 8 9 8 6 5 5 7 8 8 6 5 4 2 1 0 0 0 0 0 0 0 0 0 0 0 1 0 0 0
0 0 0 0 0 0 1 3 8 15 23 25 21 18 14 9 7 7 6 6 7 8 7 5 4 3 3 6 7 6 4 3 2 1 0 0 0 0 0 0 0 0 0 0 0 0 0 0 0
0 0 0 0 0 0 1 5 10 18 26 28 24 19 14 8 6 6 5 5 6 7 6 5 3 1 1 2 3 4 3 3 2 1 0 0 0 0 0 0 0 0 0 0 0 0 0 0 0
0 0 0 0 0 1 4 8 13 18 23 25 23 19 14 10 8 6 6 6 5 4 4 4 2 1 0 0 1 1 1 1 1 0 0 0 0 0 0 0 0 0 0 0 0 1 0 0 0
0 0 0 0 0 1 4 9 12 14 18 20 18 15 13 11 10 8 6 4 2 1 2 2 2 1 0 0 0 0 0 0 0 0 0 0 0 0 0 0 0 0 0 0 0 0 0 0 0
0 0 0 0 0 0 2 4 6 8 12 16 15 12 10 10 10 8 6 3 1 0 1 1 1 0 0 0 0 0 0 0 0 0 0 0 0 0 0 0 0 0 0 0 0 0 0 0 0
0 0 0 0 0 0 0 1 1 3 7 12 14 11 9 10 10 9 7 4 2 1 0 0 0 0 0 0 0 0 0 0 0 1 1 0 0 0 0 0 0 0 0 0 0 0 0 0 0
0 0 0 0 0 0 0 0 0 0 3 8 11 10 9 10 10 9 7 5 3 2 1 0 0 0 1 1 1 1 0 0 0 1 1 0 0 0 0 0 0 0 0 0 0 0 0 0 0
0 0 0 0 0 0 0 0 0 0 2 5 7 8 9 9 10 9 7 5 4 3 2 1 1 2 2 2 2 1 0 0 1 1 1 1 0 0 0 0 0 0 0 0 0 0 0 0 0
0 0 0 0 0 0 0 0 0 0 1 4 6 8 10 10 9 8 7 5 4 4 3 2 2 2 2 2 2 1 0 0 1 2 2 2 1 0 0 0 0 1 1 1 0 0 0 0 0
0 0 0 0 0 0 0 0 0 0 1 3 6 9 10 9 8 7 6 4 4 4 3 2 1 2 1 1 1 0 0 1 2 3 3 2 1 0 0 0 0 1 2 2 1 0 0 0 0
0 0 0 0 0 0 0 0 0 0 0 2 5 8 9 7 5 4 3 2 2 3 3 1 0 0 0 0 0 0 0 1 2 2 2 1 0 0 0 0 0 0 1 2 2 1 1 0 0
0 0 0 0 0 0 0 0 0 0 1 2 5 7 7 6 3 1 1 0 1 2 2 1 1 1 1 0 0 0 0 1 1 1 1 0 0 0 0 0 0 0 0 2 3 3 2 1 0
0 0 0 0 0 0 0 0 0 0 1 3 4 5 6 6 3 1 0 0 0 1 1 1 1 2 1 0 0 0 0 0 0 0 0 0 0 0 0 0 0 0 1 2 3 3 2 1 0
0 0 0 0 0 0 0 0 0 0 0 1 2 4 5 5 3 1 0 0 0 0 0 0 1 1 1 0 0 0 0 0 0 0 0 0 0 0 0 0 0 0 1 2 2 2 1 1 0
0 0 0 0 0 0 0 0 0 0 0 0 1 3 5 5 2 0 0 0 0 0 0 0 0 0 0 0 0 0 0 0 0 0 0 0 0 0 0 0 0 0 0 1 1 1 1 0 0

GEFSSGP_con_prob3kmehi_144.txt.gz
EHI
0 0 0 0 0 0 0 0 0 0 0 0 0 1 2 2 3 4 6 8 12 14 9 5 8 19 36 56 69 73 69 62 56 44 30 25 24 23 17 8 2 1 1 2 1 0 0 1 1
0 0 0 0 0 0 0 0 0 0 0 0 1 3 5 6 7 8 10 11 14 15 11 8 10 20 36 53 66 71 69 64 57 44 32 27 27 26 19 10 3 1 1 1 1 0 0 0 1
0 0 0 0 0 0 0 0 1 1 1 1 3 6 9 11 11 13 16 17 16 14 12 11 13 20 33 47 59 65 65 62 54 44 35 29 29 27 20 12 6 4 2 1 1 1 0 0 0
0 0 0 0 0 0 0 0 1 1 1 2 4 8 13 14 13 17 22 20 16 14 12 13 15 21 31 41 50 56 59 56 49 40 34 30 27 25 20 14 10 7 5 2 1 1 1 0 0
0 0 0 0 0 0 0 0 0 0 0 1 5 11 16 18 19 23 25 20 17 16 16 16 19 25 33 40 46 51 52 49 43 36 31 27 24 21 18 14 11 10 8 4 2 2 2 1 0
0 0 0 0 0 0 0 0 0 0 0 2 5 13 19 22 26 29 23 17 15 18 20 21 22 25 33 41 45 47 45 41 38 35 31 26 21 16 13 11 11 10 9 4 2 3 3 3 2
0 0 0 0 0 0 0 1 1 2 3 4 5 13 23 28 33 33 27 20 17 18 21 21 18 18 23 32 40 43 40 35 33 31 28 24 18 11 7 8 9 9 7 3 1 2 3 4 3
0 0 0 0 0 0 1 2 4 7 9 10 10 18 30 38 40 40 36 30 25 23 22 20 16 13 13 20 30 35 33 30 27 24 21 18 12 7 5 7 9 7 5 4 3 3 4 4 4
0 0 0 0 0 0 1 2 5 9 13 16 20 28 38 44 46 48 45 40 36 30 25 22 19 15 12 17 25 27 24 22 20 17 14 10 7 6 6 10 10 6 4 5 4 3 4 4 4
0 0 0 0 0 0 0 1 3 9 13 17 24 33 39 43 48 51 47 41 37 32 26 24 23 21 20 23 27 25 21 18 17 14 10 7 8 8 9 12 10 4 2 2 2 2 2 2 3
0 0 0 0 0 0 0 2 5 11 14 17 22 28 33 38 44 46 42 37 33 29 26 25 25 25 25 26 26 24 22 22 20 14 9 9 10 10 10 11 10 5 3 2 1 0 0 0 1
0 0 0 0 0 0 2 6 11 16 18 17 19 22 26 32 37 38 34 31 29 26 24 23 25 27 27 27 25 22 23 25 23 16 11 9 9 9 9 11 10 8 5 4 3 2 1 1 1
0 0 0 0 0 1 4 9 14 18 18 17 18 20 25 29 31 30 28 26 25 22 20 20 23 26 27 27 24 21 21 23 21 16 11 9 8 8 7 8 8 7 5 5 5 5 5 5 5
0 0 0 0 0 1 4 8 12 14 15 18 21 24 26 27 26 24 23 21 19 18 17 19 21 23 23 23 22 18 17 17 16 13 12 12 11 8 6 5 5 4 3 3 5 6 8 10 10
1 1 0 0 0 0 2 6 9 10 12 17 21 23 23 20 19 18 16 14 13 14 16 18 19 18 18 19 18 16 15 14 13 12 13 13 11 8 5 4 4 4 4 5 4 5 7 8 7
0 0 0 0 0 0 1 4 7 8 10 14 16 15 14 12 11 11 10 10 10 12 14 16 17 17 17 17 18 17 15 15 14 13 13 11 7 4 3 3 3 4 6 8 6 4 4 3 2
0 0 0 0 0 0 0 2 5 7 9 11 12 10 9 8 8 9 9 10 10 12 14 15 15 15 15 16 17 17 16 15 13 12 10 7 4 2 1 1 2 4 6 8 6 4 2 1 0
0 0 0 0 0 0 0 2 5 7 8 10 12 11 8 7 8 9 10 10 11 13 14 14 14 13 12 14 15 14 13 11 9 8 7 6 5 4 3 2 2 5 6 6 4 2 1 1 1
0 0 0 0 0 0 1 3 7 9 10 12 14 13 11 9 10 11 11 11 13 15 15 14 12 11 11 11 12 11 10 8 6 5 5 5 6 7 6 4 4 6 7 6 3 1 1 1 0
0 0 0 0 0 1 3 5 8 10 12 15 16 14 13 12 12 12 12 13 14 15 15 13 12 10 10 9 9 8 7 6 6 6 6 6 7 8 7 6 6 6 6 6 4 2 2 1 0
0 0 0 0 1 2 4 5 7 10 13 15 16 15 13 13 13 12 12 13 13 13 13 13 12 11 9 7 6 6 6 6 7 8 8 8 7 8 7 7 7 7 7 6 4 3 2 1 0
0 0 0 0 1 2 2 2 4 8 11 13 15 14 13 13 12 11 12 12 12 11 10 11 11 10 7 6 5 5 6 6 6 7 7 5 5 7 7 7 7 8 8 6 5 3 1 0 0
0 0 0 0 0 0 0 0 2 5 8 11 16 19 17 14 11 9 10 12 11 9 8 9 9 7 5 5 5 5 4 4 4 4 2 2 2 5 6 6 6 7 8 7 6 4 2 0 0
0 0 0 0 0 0 0 0 1 4 6 10 18 25 23 16 11 9 10 12 11 9 8 9 8 6 4 5 6 5 3 3 3 2 1 0 1 3 4 4 4 5 6 6 6 5 3 1 1
0 0 0 0 0 0 0 1 3 4 5 9 17 24 23 18 13 11 12 12 11 10 9 9 8 6 4 4 4 3 2 2 3 2 1 0 1 2 2 2 2 3 4 4 4 4 3 3 2
0 0 0 0 0 0 0 1 4 5 5 8 12 16 17 16 14 13 14 14 12 9 8 8 6 4 3 1 1 1 0 1 2 2 1 0 0 1 1 1 1 1 1 1 2 3 3 3 3
0 0 0 0 0 0 0 1 2 3 4 7 7 8 11 13 12 13 14 14 11 8 5 4 3 2 1 0 0 0 0 0 1 1 0 0 0 0 0 0 0 0 0 0 1 2 3 3 3
0 0 0 0 0 0 0 1 1 1 3 5 4 3 5 9 11 11 11 10 8 6 3 1 1 0 0 0 0 0 0 0 0 0 0 0 0 0 0 0 0 0 0 0 0 1 2 2 2
0 0 0 0 0 0 0 0 0 1 1 2 1 1 3 6 8 8 7 5 5 4 2 1 0 0 0 0 0 0 0 0 0 0 0 0 0 0 0 0 0 0 0 0 0 0 1 1 1
0 0 0 0 0 0 0 0 0 1 1 1 0 1 2 5 6 5 4 4 3 3 2 2 1 0 0 0 0 0 0 0 0 0 0 0 0 0 0 0 0 0 0 0 0 0 0 0 0

GEFSSGP_con_prob3kmehi_150.txt.gz
EHI
0 0 0 0 0 0 0 1 2 1 0 1 1 5 12 14 12 11 18 33 45 40 32 32 32 26 17 12 9 6 3 2 2 3 4 3 1 2 2 1 1 0 0 0 0 0 0 0 0
0 0 0 0 0 0 0 3 4 2 1 2 5 10 16 16 12 12 20 36 44 39 33 35 38 33 22 13 9 6 3 2 2 3 4 3 1 1 1 1 1 0 0 0 0 0 0 0 0
0 0 0 0 0 0 1 3 4 3 2 5 11 17 20 16 13 16 25 37 41 36 35 41 44 39 28 17 10 7 5 6 6 6 5 3 1 0 0 1 1 0 0 0 0 0 0 0 0
0 0 0 0 0 0 1 2 3 2 4 9 17 23 22 18 18 23 29 34 33 30 33 41 46 44 35 24 15 11 11 12 12 10 9 6 4 2 1 1 0 0 0 0 0 0 0 0 0
0 0 0 0 0 1 1 1 1 1 5 12 21 27 25 21 21 25 27 26 25 27 30 37 45 47 39 28 18 15 14 14 13 12 11 11 10 7 4 1 1 1 0 0 0 0 0 0 0
0 0 0 0 0 0 0 0 1 3 7 13 22 28 27 22 19 21 21 20 24 29 31 32 36 39 35 25 19 17 16 15 13 11 10 12 11 8 5 2 1 0 0 0 0 0 0 0 0
0 0 0 0 0 0 0 1 3 8 13 16 22 28 28 23 19 18 19 22 27 31 28 23 22 24 24 22 19 18 18 16 14 10 8 7 7 7 5 2 1 1 1 0 0 0 1 1 1
0 0 0 0 0 0 1 2 6 14 22 26 31 37 37 31 26 25 26 30 33 32 27 22 18 17 17 18 19 18 17 16 13 9 5 4 5 7 5 3 3 3 2 1 0 0 1 2 2
0 0 0 0 0 0 1 3 9 17 27 36 45 50 48 40 35 33 35 39 42 38 31 27 24 21 17 18 21 18 14 13 11 8 5 4 6 8 7 7 8 6 3 1 0 0 0 1 1
0 0 0 0 0 0 1 3 7 15 26 39 50 57 54 46 38 37 39 42 43 40 34 31 31 28 26 25 23 17 12 13 12 11 9 7 7 10 13 15 13 7 3 1 1 1 1 1 1
0 0 0 0 0 1 3 6 12 19 28 38 50 58 55 46 39 38 39 38 36 34 32 34 35 36 37 35 26 18 18 19 18 17 15 11 11 13 18 19 14 8 3 1 2 3 2 1 0
0 0 0 1 2 4 8 16 25 31 35 40 48 55 53 44 41 40 39 36 32 28 29 33 37 41 44 42 34 28 27 25 21 20 19 15 14 14 17 18 13 8 5 3 3 4 3 1 1
0 0 0 2 3 6 13 23 33 36 37 42 45 48 48 46 43 42 39 37 34 28 27 33 38 41 43 44 40 34 32 26 20 18 18 15 14 15 17 18 15 10 8 8 7 6 5 5 5
0 0 0 1 3 5 10 21 29 32 35 41 42 42 43 44 43 41 39 39 37 34 33 36 37 38 38 38 35 30 26 22 17 15 14 13 14 18 22 21 17 13 13 15 14 11 9 8 8
0 0 0 0 1 2 6 16 25 30 34 39 40 39 39 40 40 39 38 40 40 40 40 39 37 36 35 33 28 22 19 18 18 18 17 13 13 17 20 19 16 15 16 17 14 12 11 10 8
0 0 0 0 0 0 4 14 22 27 32 36 38 35 32 33 36 36 35 36 39 42 42 40 37 37 36 33 27 21 18 18 19 21 20 16 12 11 11 12 13 14 16 14 11 10 11 9 9
0 0 0 0 0 0 4 14 22 26 29 33 35 31 26 27 31 32 30 31 34 38 39 37 36 37 36 33 29 24 22 22 21 19 19 17 12 7 6 7 10 13 15 13 10 11 11 10 9
0 0 0 0 0 1 6 16 23 25 27 30 32 29 24 23 26 27 25 25 28 31 33 32 33 33 33 31 30 28 26 25 21 16 17 17 14 10 7 7 8 11 14 12 10 12 12 10 8
0 0 0 0 1 3 10 19 24 24 26 29 30 29 25 23 23 23 22 20 22 25 26 27 27 28 28 27 27 26 25 23 19 16 17 18 16 12 10 8 9 12 14 12 10 10 10 8 6
0 0 0 0 1 4 10 19 25 24 24 27 31 30 27 25 24 22 20 19 20 21 21 22 22 22 23 23 22 22 21 18 16 15 16 17 16 14 12 12 14 15 15 13 10 8 7 6 4
0 0 0 0 1 2 6 14 24 25 22 23 28 30 28 27 26 23 20 19 19 18 18 18 18 19 19 18 18 17 16 15 13 14 14 15 14 13 12 13 15 15 14 12 10 7 5 4 4
0 0 0 0 0 1 2 8 19 25 22 20 24 30 31 29 28 25 20 18 17 17 17 17 18 18 17 16 15 13 12 11 10 11 12 12 12 12 10 10 12 12 11 10 9 7 5 3 3
0 0 0 0 0 0 0 3 12 20 21 19 23 30 33 31 30 27 22 17 16 16 16 17 17 17 15 14 13 11 9 8 7 8 9 10 10 9 7 7 8 8 8 8 7 6 5 4 4
0 0 0 0 0 0 0 2 6 14 17 18 24 31 32 31 28 25 22 18 16 16 16 16 16 16 15 14 12 11 9 8 7 7 7 7 6 5 5 6 6 5 5 5 5 6 6 5 4
0 0 0 0 0 0 0 1 5 11 16 18 25 30 30 28 24 20 19 18 17 17 16 16 16 16 16 15 14 12 10 9 8 7 6 5 2 2 3 4 4 3 2 2 3 4 4 3 3
0 0 0 0 0 0 0 2 6 11 15 19 24 27 26 25 22 17 16 17 16 16 16 16 16 16 16 15 14 13 11 9 9 8 5 3 1 0 1 1 1 1 1 1 1 2 2 1 1
0 0 0 0 0 0 0 2 6 10 15 19 22 24 25 24 20 15 15 16 15 14 14 15 14 14 13 12 11 10 9 8 7 6 3 1 0 0 0 0 0 0 0 0 0 0 0 0 0
0 0 0 0 0 0 0 1 5 8 13 15 17 21 24 22 19 16 16 15 14 13 13 13 12 11 9 8 8 6 5 4 3 3 1 0 0 0 0 0 0 0 0 0 0 0 0 0 0
0 0 0 0 0 0 0 1 4 8 10 11 12 16 19 19 19 19 18 15 14 13 13 12 10 8 6 6 5 3 2 1 0 0 0 0 0 0 0 0 0 0 0 0 0 0 0 0 0
0 0 0 0 0 0 0 2 6 8 10 10 10 13 15 16 19 20 17 14 13 13 13 12 9 7 6 4 3 2 1 0 0 0 0 0 0 0 0 0 0 0 0 0 0 0 0 0 0

GEFSSGP_con_prob3kmehi_156.txt.gz
EHI
0 0 0 0 0 0 0 0 0 2 7 15 23 28 23 14 6 2 3 17 38 44 32 28 32 32 24 18 17 15 12 11 10 11 13 15 14 11 7 5 4 3 1 1 0 0 0 0 0
0 0 0 0 0 0 0 0 1 5 11 20 28 31 26 16 7 2 3 16 37 42 32 30 39 41 32 23 18 16 13 11 11 11 13 12 11 9 7 6 5 3 1 1 0 0 0 0 0
0 0 0 0 0 0 0 1 5 11 19 26 31 32 26 15 7 3 4 18 36 40 32 34 47 50 40 29 20 16 14 13 12 12 11 10 8 7 7 6 5 2 1 0 0 0 0 0 0
0 0 0 0 0 0 0 3 9 17 25 29 30 28 22 14 10 9 10 22 37 41 34 38 50 53 44 31 22 16 14 13 12 10 9 7 6 6 7 5 2 1 0 0 0 0 0 0 0
0 0 0 0 0 0 2 7 16 22 25 28 28 26 21 17 18 18 18 26 38 42 38 39 48 51 44 33 24 17 13 11 9 7 6 5 5 5 5 3 1 0 0 0 0 0 0 0 0
0 0 0 0 0 0 3 11 21 25 26 26 27 25 20 18 23 24 22 27 35 39 37 37 41 44 41 33 24 17 14 11 8 5 4 4 5 4 3 2 1 1 0 0 0 0 0 0 0
0 0 0 0 0 0 4 14 24 28 27 23 23 23 18 18 23 25 23 24 28 30 29 29 30 32 33 29 22 17 13 10 8 5 4 4 4 4 5 4 3 2 1 0 0 0 0 0 0
0 0 0 0 0 1 8 18 26 27 25 20 19 19 16 17 23 26 27 25 22 21 19 18 18 21 23 21 18 15 12 9 8 7 6 5 4 5 7 7 5 4 2 1 0 0 0 0 0
0 0 0 0 1 4 12 21 25 27 28 27 26 25 22 22 27 33 34 30 23 17 14 13 13 15 16 15 14 13 11 9 7 7 7 6 6 6 6 5 4 2 1 0 0 0 0 0 0
0 0 1 2 4 9 16 24 25 27 34 36 38 39 36 34 36 39 39 34 26 20 15 12 12 14 14 12 10 8 6 5 5 5 5 5 4 4 4 2 1 0 0 0 0 0 0 0 0
0 0 1 4 9 14 22 28 28 28 32 36 43 47 46 42 40 40 37 32 27 23 18 14 12 12 12 9 7 4 3 2 2 2 3 3 2 2 2 2 1 1 0 0 0 0 0 0 0
0 0 1 4 10 17 25 29 30 29 30 36 43 47 45 41 38 35 32 29 26 23 18 14 11 8 7 6 4 3 2 2 1 1 1 1 1 1 1 2 2 1 0 0 0 0 0 0 0
0 1 2 5 10 17 23 25 26 28 34 42 45 44 42 38 34 32 29 26 24 22 18 12 7 5 4 4 4 3 3 2 1 0 0 0 0 0 1 1 1 1 0 0 0 0 0 0 0
2 2 3 5 10 16 22 23 23 27 35 43 45 43 38 34 32 29 26 25 23 22 19 14 9 7 7 7 5 4 3 2 2 1 0 0 0 0 1 0 0 0 0 0 0 0 0 0 0
2 3 3 4 8 13 19 22 22 26 33 39 41 40 34 29 27 26 24 24 24 23 21 18 14 12 12 11 7 5 3 2 2 1 0 1 1 0 0 0 0 0 0 0 0 0 0 0 0
1 2 3 4 5 9 15 19 21 25 31 34 34 34 31 26 25 25 25 24 23 21 19 18 17 15 14 12 9 5 3 2 2 1 1 2 2 1 1 0 0 0 0 0 1 1 0 0 0
0 1 2 2 3 7 15 21 24 28 32 31 29 28 26 24 23 25 25 22 18 16 15 16 16 15 14 12 8 4 3 3 2 2 2 3 3 2 1 0 0 0 0 0 1 1 0 0 0
0 0 1 1 2 9 20 26 29 33 33 29 25 24 22 21 21 22 21 18 14 13 14 15 14 14 13 11 8 4 2 2 3 3 4 4 3 3 2 1 0 0 0 0 1 1 0 0 0
0 0 0 0 2 10 21 27 29 30 29 25 22 21 20 20 21 21 18 15 13 14 15 14 13 13 12 11 9 7 3 2 2 4 5 4 3 3 3 2 0 0 0 0 0 0 0 0 0
0 0 0 1 3 10 18 23 23 22 20 19 18 18 18 20 22 20 15 13 13 14 15 15 13 12 12 12 11 9 5 2 2 3 4 4 3 4 5 2 1 1 0 0 0 0 0 0 0
0 0 0 1 4 7 12 16 18 17 15 14 15 15 16 18 19 16 12 11 13 14 15 14 12 12 13 12 11 9 6 4 3 3 3 4 5 6 5 3 1 1 0 0 0 0 0 0 0
0 0 0 1 2 4 5 8 12 15 15 16 16 14 13 15 15 12 10 12 14 14 13 11 11 11 12 11 10 9 7 6 4 4 4 5 6 6 5 3 2 1 0 0 0 0 0 0 0
0 0 0 0 1 1 2 2 5 10 14 19 19 15 12 13 12 11 11 12 14 13 11 10 10 10 10 10 10 9 8 6 4 4 5 6 6 6 5 3 2 0 0 0 0 0 0 0 0
0 0 0 0 0 0 0 0 1 4 10 17 18 13 10 10 10 9 10 12 13 11 10 9 9 9 9 9 9 9 8 5 3 3 5 5 4 4 3 2 1 0 0 0 0 0 0 0 0
0 0 0 0 0 0 0 0 0 2 6 12 14 9 6 6 6 8 10 12 11 9 8 8 7 7 7 7 7 7 6 4 2 2 3 4 3 3 1 1 0 0 0 0 0 0 0 0 0
0 0 0 0 0 0 0 0 0 2 5 9 10 8 5 5 5 6 8 9 8 8 7 7 6 6 6 6 5 4 3 3 2 1 2 3 3 2 1 0 0 0 0 0 0 0 0 0 0
0 0 0 0 0 0 0 0 0 2 6 8 9 9 6 6 7 6 5 5 6 6 6 6 6 6 5 3 2 1 1 1 1 0 1 1 2 1 0 0 0 0 0 0 0 0 0 0 0
0 0 0 0 0 0 0 0 0 2 4 6 7 6 6 6 6 4 3 4 5 5 6 5 4 4 3 1 0 0 0 0 0 0 0 0 0 0 0 0 0 0 0 0 0 0 0 0 0
0 0 0 0 0 0 0 0 0 0 2 3 3 3 3 4 2 2 2 4 4 4 4 4 3 3 1 0 0 0 0 0 0 0 0 0 0 0 0 0 0 0 0 0 0 0 0 0 0
0 0 0 0 0 0 0 0 0 0 0 1 1 1 2 1 0 0 2 4 4 4 3 3 3 2 1 0 0 0 0 0 0 0 0 0 0 0 0 0 0 0 0 0 0 0 0 0 0

GEFSSGP_con_prob3kmehi_162.txt.gz
EHI
0 0 0 0 0 0 0 0 0 0 0 2 5 6 4 2 1 1 2 4 6 6 3 4 9 14 17 24 33 37 39 42 45 42 35 28 24 22 18 12 8 6 3 1 0 0 0 0 0
0 0 0 0 0 0 0 0 1 2 3 4 7 7 6 4 2 3 4 7 8 6 3 7 15 21 22 27 34 37 37 37 37 34 29 22 20 21 18 12 7 5 2 1 0 0 0 0 0
0 0 0 0 0 0 0 1 3 6 7 7 8 8 7 6 4 4 7 12 12 7 5 12 25 30 29 31 36 38 35 31 28 25 22 18 16 17 15 10 6 4 2 0 0 0 1 0 0
0 0 0 0 0 0 0 1 5 8 8 8 9 9 9 8 5 5 11 17 17 11 7 17 32 38 36 36 37 37 33 28 24 22 20 17 15 14 12 9 6 4 2 0 0 0 0 0 0
0 0 0 0 0 0 0 2 6 7 7 6 10 13 12 9 7 8 12 17 18 15 12 21 34 40 40 39 36 33 29 26 24 23 21 17 15 15 13 10 6 3 2 1 1 1 1 1 1
0 0 0 0 0 1 2 3 6 6 5 6 11 15 13 9 9 11 13 14 17 18 18 23 30 35 38 36 33 28 24 23 23 21 19 19 17 15 12 9 6 3 2 2 3 3 2 2 2
0 0 0 0 1 2 3 4 6 7 6 7 10 11 9 7 10 13 15 17 18 19 19 21 24 26 30 30 27 24 20 19 20 18 17 16 15 11 8 7 5 3 2 2 2 2 1 2 2
0 0 0 0 1 2 3 5 6 7 7 8 7 5 7 11 15 19 22 23 21 18 16 18 19 20 21 22 22 20 17 14 14 15 14 11 7 5 5 7 6 3 1 1 1 0 0 1 1
0 0 0 0 0 1 3 6 6 6 8 10 8 8 15 23 25 25 27 27 24 18 12 13 16 16 15 14 15 14 12 9 9 11 11 7 2 1 2 6 6 3 0 0 0 0 0 0 0
0 1 1 1 0 1 3 6 6 6 9 12 14 20 28 31 28 25 24 24 22 17 9 7 10 12 11 10 10 8 7 7 7 8 8 4 1 0 1 2 2 1 0 0 0 0 0 0 0
1 1 2 1 0 2 5 7 7 6 8 13 21 33 37 32 25 21 18 17 16 13 8 5 6 9 10 9 7 6 6 6 6 7 5 2 1 1 1 0 0 0 0 1 1 1 0 0 0
1 1 2 2 3 5 8 9 9 9 9 16 29 39 40 31 23 19 15 14 14 12 8 7 8 8 8 7 6 6 6 6 5 4 3 2 2 2 1 0 0 0 0 1 1 1 0 1 1
1 3 5 5 7 10 12 13 13 13 16 25 35 41 38 30 23 18 14 14 13 10 8 10 11 9 7 7 5 4 4 4 3 2 2 2 2 1 1 1 0 0 0 0 0 0 0 0 0
2 5 8 9 9 11 14 16 16 16 21 30 35 35 31 27 23 17 13 11 11 7 6 9 10 8 6 6 4 2 1 2 2 1 1 1 1 0 0 1 0 0 0 0 0 0 0 0 0
1 4 7 8 8 9 13 15 15 16 21 27 28 25 23 22 20 16 11 10 9 7 5 6 7 5 4 4 3 1 0 1 1 0 0 0 0 0 0 0 0 0 0 0 0 0 0 0 0
0 2 3 4 5 7 9 9 11 15 19 21 20 19 18 17 16 14 12 11 11 9 6 6 5 4 3 3 3 2 1 0 0 0 0 0 0 1 1 1 0 0 0 0 0 0 0 0 0
0 0 1 1 2 4 4 5 8 14 18 18 17 17 17 15 12 11 11 12 11 9 8 7 5 4 3 2 2 2 1 0 0 0 0 0 0 1 2 1 1 0 0 0 0 0 0 0 0
0 0 0 0 1 2 3 4 10 14 15 15 17 18 18 16 11 8 10 10 9 8 8 7 5 3 3 2 2 1 0 0 0 0 0 0 0 1 1 1 1 1 0 0 0 0 0 0 0
0 0 0 0 0 1 4 7 11 15 13 12 15 18 18 16 12 8 9 9 8 8 9 7 4 3 3 3 2 1 1 1 1 1 0 0 0 1 0 0 0 0 0 0 0 0 0 0 0
0 0 0 0 0 2 5 8 12 14 11 8 10 14 16 15 13 10 9 9 9 9 8 6 4 3 3 3 4 3 2 2 2 1 0 0 0 0 0 0 0 0 0 0 0 0 0 0 0
0 0 0 0 0 1 4 6 10 12 10 8 9 11 12 12 11 9 9 9 9 8 7 6 4 4 3 4 5 6 5 3 2 1 0 0 0 0 0 0 0 0 0 0 0 0 0 0 0
0 0 0 0 0 0 2 3 5 7 8 8 10 12 12 10 8 7 8 8 8 7 7 6 5 5 4 5 7 8 7 5 2 0 0 0 0 0 0 0 0 0 0 0 0 0 0 0 0
0 0 0 0 0 0 0 1 1 3 5 7 10 14 14 11 8 6 5 6 6 6 7 7 6 5 5 6 8 8 7 5 2 0 0 0 0 0 0 0 0 0 0 0 0 0 0 0 0
0 0 0 0 0 0 0 0 0 1 3 4 7 12 14 13 9 6 3 3 3 5 6 6 5 5 6 6 7 7 7 5 2 0 0 0 0 0 0 0 0 0 0 0 0 0 0 0 0
0 0 0 0 0 0 0 0 0 0 1 2 4 7 11 12 9 6 4 2 2 3 5 5 5 6 6 6 6 6 6 5 3 1 0 0 0 0 0 0 0 0 0 0 0 0 0 0 0
0 0 0 0 0 0 0 0 0 0 0 1 2 4 8 9 7 5 5 4 3 4 5 6 6 6 6 6 6 6 6 5 3 1 0 0 0 0 0 0 0 0 0 0 0 0 0 0 0
0 0 0 0 0 0 0 0 0 0 0 1 2 3 5 5 5 5 6 4 3 5 6 6 6 6 6 5 5 4 4 3 1 0 0 0 0 0 0 0 0 0 0 0 0 0 0 0 0
0 0 0 0 0 0 0 0 0 0 0 1 2 2 3 3 4 5 5 4 3 3 4 4 4 4 4 3 2 1 1 1 0 0 0 0 0 0 0 0 0 0 0 0 0 0 0 0 0
0 0 0 0 0 0 0 0 0 0 0 0 1 1 1 2 3 4 3 2 1 1 2 3 3 3 2 2 1 0 0 0 0 0 0 0 0 0 0 0 0 0 0 0 0 0 0 0 0
0 0 0 0 0 0 0 0 0 0 0 0 0 0 0 1 1 2 1 1 0 1 2 3 3 2 1 1 0 0 0 0 0 0 0 0 0 0 0 0 0 0 0 0 0 0 0 0 0

GEFSSGP_con_prob3kmehi_168.txt.gz
EHI
0 0 0 0 0 0 0 1 0 0 0 0 0 0 0 1 2 2 5 10 13 11 6 3 2 3 9 20 37 49 53 54 50 38 24 15 11 7 4 2 1 0 0 0 0 0 0 0 0
0 0 0 0 0 0 0 1 2 1 1 1 1 1 1 3 4 4 7 11 12 9 4 2 2 3 9 20 34 45 49 49 43 33 22 15 12 9 4 1 0 0 0 0 0 0 0 0 0
0 0 0 0 0 0 0 1 3 3 2 2 2 2 3 5 6 8 11 13 11 6 2 2 2 4 9 18 31 41 45 43 36 28 20 15 13 9 4 1 0 0 0 0 0 0 0 0 0
0 0 0 0 0 0 0 1 2 2 3 3 3 3 5 7 8 12 16 15 9 4 1 1 3 5 10 17 29 39 42 39 33 25 19 15 12 8 5 2 1 0 1 1 1 1 1 1 1
0 0 0 0 0 0 0 0 1 2 2 3 4 4 8 11 14 18 20 14 7 3 2 2 3 6 11 16 25 35 39 37 31 23 16 14 11 7 6 5 3 2 1 2 2 2 2 2 2
0 0 0 0 0 0 0 0 1 1 2 3 4 6 10 15 19 21 18 12 7 4 3 2 2 4 8 14 22 31 33 31 26 19 14 13 11 7 6 6 5 3 1 1 1 1 1 1 2
0 0 0 0 1 2 1 1 2 2 2 3 3 5 12 21 24 20 15 12 8 5 3 2 2 2 5 10 17 23 24 21 19 16 13 11 8 6 6 6 5 3 1 0 0 0 0 0 1
0 0 0 1 2 2 3 4 4 3 3 4 4 6 17 30 32 25 19 15 11 7 4 2 1 1 2 5 10 13 14 13 12 12 10 7 5 4 5 5 6 4 2 0 0 0 0 0 0
0 0 1 2 2 2 3 5 6 4 4 6 6 11 25 38 40 34 27 21 17 12 6 3 2 1 1 3 5 6 7 8 7 8 8 6 4 3 3 4 6 4 1 0 0 0 0 0 0
0 1 2 3 3 3 5 6 5 4 3 5 8 17 31 40 40 36 30 25 22 18 12 7 5 5 5 5 6 5 5 4 4 6 8 7 6 4 3 6 6 3 0 0 0 0 0 0 0
0 1 2 3 3 5 6 6 6 5 4 5 12 23 33 37 35 31 27 24 23 22 17 12 10 9 9 9 10 9 8 8 7 8 9 8 6 5 6 7 7 4 2 0 0 0 0 0 0
1 1 2 3 5 6 5 5 7 8 7 7 14 24 29 29 27 25 22 20 21 23 22 17 14 13 13 13 13 12 11 13 14 13 12 9 6 6 8 9 8 6 3 1 0 0 0 0 0
3 4 4 5 6 6 5 5 7 9 9 10 14 20 22 20 19 19 18 17 19 23 24 21 17 17 19 20 19 16 14 15 16 15 14 10 7 6 8 10 9 7 4 2 0 0 0 0 1
3 5 7 7 6 5 5 6 7 9 10 11 13 16 16 14 15 17 16 15 16 19 20 19 18 20 23 24 20 17 14 13 13 14 13 11 8 6 7 10 9 7 5 3 1 1 1 1 1
2 4 6 6 6 5 4 6 7 8 9 11 12 14 14 13 14 15 15 16 16 15 15 16 18 20 22 21 16 13 11 10 11 11 12 10 9 9 9 9 8 7 6 4 2 2 3 2 1
1 1 2 2 2 2 2 4 7 8 9 11 13 14 15 14 13 13 14 16 17 15 15 16 15 17 19 17 13 10 8 8 8 10 11 10 9 9 9 8 8 7 6 3 3 4 5 3 1
0 0 0 0 0 0 1 3 7 9 10 12 14 16 15 14 12 12 13 14 15 17 17 15 13 13 15 14 12 10 9 8 8 9 11 11 8 6 5 6 7 6 4 2 2 5 5 3 2
0 0 0 0 0 0 1 3 6 9 9 10 13 15 14 14 13 13 12 14 16 17 17 14 12 11 11 11 10 10 9 9 8 8 10 11 8 4 2 3 4 4 4 2 1 3 4 3 2
0 0 0 0 0 0 1 1 3 7 9 10 11 13 13 14 14 14 13 16 19 19 16 14 11 8 7 9 10 11 10 9 7 7 8 9 7 5 3 2 2 3 4 3 3 3 3 2 1
0 0 0 0 0 0 0 0 2 6 9 9 11 13 13 14 15 15 15 18 21 20 16 12 9 5 3 6 9 10 10 8 7 7 8 7 5 4 3 2 2 2 3 4 5 6 5 3 2
0 0 0 0 0 0 0 0 2 5 8 9 11 14 16 17 17 17 17 19 19 17 13 9 6 4 3 4 6 8 8 8 8 10 10 7 5 3 2 2 2 2 3 4 6 7 6 5 5
0 0 0 0 0 0 0 0 2 4 7 9 12 15 18 19 21 23 21 19 17 13 9 8 6 4 4 5 4 6 8 9 10 12 11 7 5 3 2 2 2 2 3 5 5 5 5 5 5
0 0 0 0 0 0 0 0 1 3 5 8 12 15 18 21 25 26 23 19 14 9 7 7 6 4 5 6 6 6 7 8 10 11 9 6 4 2 1 1 1 1 2 4 4 4 4 3 3
0 0 0 0 0 0 0 0 1 2 2 5 10 16 20 23 25 25 21 17 12 9 8 8 7 6 6 7 7 7 7 8 8 7 6 4 3 2 1 1 1 1 1 2 3 3 4 4 4
0 0 0 0 0 0 0 0 0 1 2 4 8 15 22 26 26 23 19 15 11 9 10 11 10 8 7 8 7 6 7 9 8 6 4 3 3 3 3 2 2 2 1 1 2 3 4 5 5
0 0 0 0 0 0 0 0 0 1 2 5 8 13 22 29 27 21 16 13 10 10 11 11 9 8 7 7 6 5 7 9 9 7 5 5 4 4 3 3 3 2 2 2 2 2 3 3 3
0 0 0 0 0 0 0 0 0 1 3 5 8 12 20 27 25 18 12 9 8 8 8 7 7 7 6 6 5 5 7 8 8 7 7 6 4 3 2 2 1 1 1 1 1 1 1 1 1
0 0 0 0 0 0 0 0 0 1 2 4 7 10 15 21 20 15 9 7 6 6 6 5 6 6 6 6 6 6 7 7 7 7 6 5 3 1 1 1 0 0 0 0 0 0 0 0 0
0 0 0 0 0 0 0 0 0 0 1 4 7 8 11 15 14 11 8 5 4 5 5 5 6 6 6 5 5 6 6 6 6 6 5 4 3 1 0 0 0 0 0 0 0 0 0 0 0
0 0 0 0 0 0 0 0 0 0 1 5 8 9 9 10 9 7 6 4 4 4 4 4 5 6 6 4 4 4 4 5 6 6 4 3 2 1 0 0 0 0 0 0 0 0 0 0 0